Waarnemingen

Advertentie
Mijn weer
Barranda, Spanje (8365): temperatuur & dauwpunt: 03.07.2020 06:00:00 - 09.07.2020 06:00:00 (CEST)Barranda, Spanje (8365): windsnelheid & windstoten: 03.07.2020 06:00:00 - 09.07.2020 06:00:00 (CEST)Barranda, Spanje (8365): windrichting: 03.07.2020 06:00:00 - 09.07.2020 06:00:00 (CEST)Barranda, Spanje (8365): luchtdruk: 03.07.2020 06:00:00 - 09.07.2020 06:00:00 (CEST)Barranda, Spanje (8365): zicht: 03.07.2020 06:00:00 - 09.07.2020 06:00:00 (CEST)Barranda, Spanje (8365): Zonneschijnduur: 03.07.2020 06:00:00 - 09.07.2020 06:00:00 (CEST)Barranda, Spanje (8365): neerslag: 03.07.2020 06:00:00 - 09.07.2020 06:00:00 (CEST)
Datum & Tijd tt [°C] td [°C] ff [km/u] ff [kn] fx [km/u] fx [kn] dd ppp [hPa] vv [km] sd [min] rr [mm]
09.07.2020 06:00:00 - - - - - - - - - - -
09.07.2020 05:00:00 19,6 14,4 5 3 10 5 N 1015,6 20 0 0,0
09.07.2020 04:00:00 20,1 14,0 3 2 20 11 NNO 1016,3 20 0 0,0
09.07.2020 03:00:00 21,0 14,1 8 4 21 11 ZW 1016,3 20 0 0,0
09.07.2020 02:00:00 21,0 13,5 8 4 21 11 W 1016,7 20 0 -
09.07.2020 01:00:00 20,9 12,3 5 3 20 11 WNW 1017,7 20 0 0,0
09.07.2020 00:00:00 21,7 13,1 9 5 21 11 N 1016,4 20 0 0,0
08.07.2020 23:00:00 23,0 11,7 8 5 27 14 NNO 1015,5 20 0 0,0
08.07.2020 22:00:00 24,2 12,5 8 4 18 10 NNO 1014,2 20 0 0,0
08.07.2020 21:00:00 25,8 12,6 9 5 16 9 ONO 1013,4 20 0 0,0
08.07.2020 20:00:00 27,3 12,5 8 4 20 11 ONO 1013,4 20 20 -
08.07.2020 19:00:00 28,6 12,8 8 5 20 11 NO 1013,0 20 9 0,0
08.07.2020 18:00:00 27,9 12,6 12 7 29 16 O 1013,9 20 0 0,0
08.07.2020 17:00:00 28,6 12,4 11 6 29 16 NO 1015,3 20 0 0,0
08.07.2020 16:00:00 31,3 13,1 11 6 35 19 NO 1012,7 20 53 0,0
08.07.2020 15:00:00 32,9 13,1 16 8 30 16 ONO 1012,6 20 59 0,0
08.07.2020 14:00:00 32,3 13,5 14 8 25 13 O 1012,9 20 60 -
08.07.2020 13:00:00 31,7 13,0 13 7 21 11 O 1013,4 20 60 0,0
08.07.2020 12:00:00 31,3 11,7 8 4 13 7 OZO 1013,6 20 60 0,0
08.07.2020 11:00:00 28,3 11,8 5 3 12 7 OZO 1014,8 20 60 0,0
08.07.2020 10:00:00 25,9 12,7 5 3 9 5 OZO 1015,4 20 60 0,0
08.07.2020 09:00:00 21,8 12,3 3 2 6 3 N 1016,4 20 48 0,0
08.07.2020 08:00:00 18,2 12,6 2 1 8 4 OZO 1016,9 20 0 -
08.07.2020 07:00:00 17,0 11,7 4 2 10 5 WZW 1016,7 20 0 0,0
08.07.2020 06:00:00 16,6 11,9 3 2 6 3 NW 1016,6 20 0 0,0
08.07.2020 05:00:00 17,3 12,2 3 2 5 3 W 1016,5 20 0 0,0
08.07.2020 04:00:00 18,1 11,9 2 1 5 3 W 1016,1 20 0 0,0
08.07.2020 03:00:00 18,9 11,7 2 1 5 3 W 1016,2 20 0 0,0
08.07.2020 02:00:00 20,1 12,3 4 2 6 3 WZW 1016,0 20 0 -
08.07.2020 01:00:00 21,3 11,6 2 1 7 4 NNW 1015,6 20 0 0,0
08.07.2020 00:00:00 22,4 10,5 3 1 5 3 N 1015,2 20 0 0,0
07.07.2020 23:00:00 24,4 10,3 3 2 7 4 NW 1014,4 20 0 0,0
07.07.2020 22:00:00 27,3 9,6 4 2 11 6 N 1013,0 20 0 0,0
07.07.2020 21:00:00 30,8 9,0 7 4 21 11 NO 1011,7 20 0 0,0
07.07.2020 20:00:00 34,8 6,1 11 6 18 10 ZZW 1010,3 20 48 -
07.07.2020 19:00:00 35,1 7,3 8 5 22 12 ONO 1009,9 20 60 0,0
07.07.2020 18:00:00 36,2 5,5 12 6 24 13 O 1009,9 20 60 0,0
07.07.2020 17:00:00 36,7 4,8 9 5 22 12 ONO 1010,2 20 60 0,0
07.07.2020 16:00:00 37,4 5,5 9 5 22 12 O 1010,3 20 60 0,0
07.07.2020 15:00:00 36,1 6,2 10 5 26 14 O 1011,0 20 60 0,0
07.07.2020 14:00:00 35,1 8,8 9 5 22 12 O 1011,6 20 60 -
07.07.2020 13:00:00 34,0 9,3 12 6 23 12 O 1012,3 20 60 0,0
07.07.2020 12:00:00 32,6 9,4 9 5 17 9 O 1012,7 20 60 0,0
07.07.2020 11:00:00 30,3 8,7 6 3 13 7 O 1013,2 16 60 0,0
07.07.2020 10:00:00 27,8 8,1 4 2 8 5 ZO 1014,0 20 60 0,0
07.07.2020 09:00:00 23,9 10,2 3 1 6 4 ZO 1015,1 20 60 0,0
07.07.2020 08:00:00 18,0 11,3 1 1 5 3 Z 1016,3 20 41 -
07.07.2020 07:00:00 15,9 10,4 3 2 4 2 NNW 1016,7 20 0 0,0
07.07.2020 06:00:00 17,2 10,3 2 1 18 10 NO 1016,1 20 0 0,0
07.07.2020 05:00:00 17,9 10,0 9 5 14 8 W 1016,0 20 0 0,0
07.07.2020 04:00:00 17,9 10,5 5 3 8 5 ZW 1016,2 20 0 0,0
07.07.2020 03:00:00 18,9 10,4 5 3 10 5 W 1016,2 20 0 0,0
07.07.2020 02:00:00 20,1 11,0 3 2 8 4 W 1016,2 20 0 -
07.07.2020 01:00:00 22,7 10,5 4 2 13 7 W 1015,6 20 0 0,0
07.07.2020 00:00:00 25,2 9,9 8 4 15 8 WZW 1014,9 20 0 0,0
06.07.2020 23:00:00 26,7 9,0 10 5 21 12 W 1014,5 20 0 0,0
06.07.2020 22:00:00 26,2 9,0 7 4 13 7 WZW 1013,9 20 0 0,0
06.07.2020 21:00:00 28,6 9,8 5 3 21 11 N 1013,0 20 0 0,0
06.07.2020 20:00:00 31,2 9,4 13 7 26 14 O 1012,2 20 46 -
06.07.2020 19:00:00 33,6 9,6 14 8 24 13 O 1011,4 20 60 0,0
06.07.2020 18:00:00 35,1 8,0 9 5 22 12 O 1011,1 20 60 0,0
06.07.2020 17:00:00 35,3 8,9 13 7 29 15 O 1011,6 20 60 0,0
06.07.2020 16:00:00 35,4 8,3 11 6 27 15 O 1011,9 20 60 0,0
06.07.2020 15:00:00 35,5 9,8 12 7 25 14 O 1012,2 20 60 0,0
06.07.2020 14:00:00 34,2 9,4 13 7 24 13 ONO 1012,9 20 60 -
06.07.2020 13:00:00 33,6 10,9 10 5 19 10 O 1013,4 20 60 0,0
06.07.2020 12:00:00 31,5 11,8 8 4 18 10 O 1014,2 20 60 0,0
06.07.2020 11:00:00 29,7 12,6 4 2 13 7 O 1014,7 20 60 0,0
06.07.2020 10:00:00 26,9 13,3 4 2 8 5 ZO 1015,5 20 60 0,0
06.07.2020 09:00:00 23,0 12,0 2 1 6 3 ZZO 1016,5 20 60 0,0
06.07.2020 08:00:00 17,4 11,9 1 1 6 4 ZW 1017,8 20 40 -
06.07.2020 07:00:00 15,3 10,5 3 2 6 3 WNW 1018,2 20 0 0,0
06.07.2020 06:00:00 15,9 11,1 2 1 5 3 W 1017,9 20 0 0,0
06.07.2020 05:00:00 16,9 11,3 3 1 5 3 WNW 1018,0 20 0 0,0
06.07.2020 04:00:00 18,2 12,6 3 2 7 4 W 1018,0 20 0 0,0
06.07.2020 03:00:00 20,2 12,6 2 1 15 8 NNW 1017,7 20 0 0,0
06.07.2020 02:00:00 22,3 12,2 11 6 25 14 NW 1017,5 20 0 -
06.07.2020 01:00:00 22,6 13,7 9 5 19 10 WZW 1017,5 20 0 0,0
06.07.2020 00:00:00 23,5 13,7 4 2 15 8 WZW 1017,6 20 0 0,0
05.07.2020 23:00:00 24,9 13,8 5 3 19 10 WZW 1017,3 20 0 0,0
05.07.2020 22:00:00 24,7 14,1 4 2 9 5 ZW 1016,8 20 0 0,0
05.07.2020 21:00:00 27,4 14,0 4 2 20 11 NNO 1015,8 20 0 0,0
05.07.2020 20:00:00 29,7 13,1 12 7 29 15 O 1015,0 20 46 -
05.07.2020 19:00:00 31,5 12,3 16 9 32 17 O 1014,3 20 60 0,0
05.07.2020 18:00:00 33,0 11,6 15 8 32 17 O 1014,1 20 60 0,0
05.07.2020 17:00:00 34,0 11,8 14 7 28 15 O 1014,3 20 60 0,0
05.07.2020 16:00:00 34,0 11,8 11 6 26 14 ONO 1014,9 20 60 0,0
05.07.2020 15:00:00 33,1 12,1 13 7 27 15 ONO 1015,9 20 60 0,0
05.07.2020 14:00:00 32,7 11,8 10 5 20 11 O 1016,6 20 60 -
05.07.2020 13:00:00 32,2 12,4 9 5 21 11 O 1017,4 20 60 0,0
05.07.2020 12:00:00 31,3 12,1 6 4 16 9 ZO 1017,9 20 60 0,0
05.07.2020 11:00:00 28,2 13,0 5 3 16 8 ZO 1019,0 20 60 0,0
05.07.2020 10:00:00 26,2 14,3 5 3 13 7 Z 1019,7 20 60 0,0
05.07.2020 09:00:00 22,1 14,7 3 1 9 5 ZW 1020,7 20 60 0,0
05.07.2020 08:00:00 17,5 15,0 6 3 10 5 WZW 1021,7 20 39 -
05.07.2020 07:00:00 15,2 13,4 2 1 6 3 W 1022,1 12 0 0,0
05.07.2020 06:00:00 15,7 13,6 3 2 9 5 ONO 1022,0 16 0 0,0
05.07.2020 05:00:00 15,9 13,6 4 2 6 3 W 1021,9 17 0 0,0
05.07.2020 04:00:00 17,0 14,2 3 2 6 4 WNW 1021,7 18 0 0,0
05.07.2020 03:00:00 18,7 15,2 2 1 12 7 ZZO 1021,3 20 0 0,0
05.07.2020 02:00:00 18,4 14,9 6 3 10 6 W 1021,7 20 0 -
05.07.2020 01:00:00 20,1 15,3 1 1 9 5 N 1021,3 20 0 0,0
05.07.2020 00:00:00 21,8 15,9 5 3 11 6 NNO 1020,7 20 0 0,0
04.07.2020 23:00:00 24,1 16,1 5 3 14 8 WZW 1019,4 20 0 0,0
04.07.2020 22:00:00 24,3 16,3 5 3 12 6 WNW 1018,5 20 0 0,0
04.07.2020 21:00:00 27,1 16,0 5 3 21 11 O 1017,4 20 0 0,0
04.07.2020 20:00:00 29,0 15,9 14 7 27 14 O 1016,6 20 22 -
04.07.2020 19:00:00 30,0 16,0 13 7 30 16 O 1016,0 20 15 0,0
04.07.2020 18:00:00 31,5 13,8 12 7 29 16 O 1015,8 20 47 0,0
04.07.2020 17:00:00 33,2 14,2 9 5 27 15 O 1015,7 20 60 0,0
04.07.2020 16:00:00 33,0 14,6 12 6 23 13 OZO 1016,3 20 60 0,0
04.07.2020 15:00:00 31,9 15,4 10 5 22 12 ONO 1017,0 20 60 0,0
04.07.2020 14:00:00 31,6 16,0 9 5 19 10 ONO 1017,8 20 60 -
04.07.2020 13:00:00 30,3 16,0 8 4 17 9 ZO 1018,7 20 60 0,0
04.07.2020 12:00:00 27,3 16,3 8 4 16 8 O 1019,6 20 60 0,0
04.07.2020 11:00:00 27,0 16,6 8 4 15 8 O 1019,6 11 60 0,0
04.07.2020 10:00:00 24,6 16,8 5 3 11 6 OZO 1019,9 18 60 0,0
04.07.2020 09:00:00 20,3 16,9 2 1 8 5 Z 1020,9 16 40 0,0
04.07.2020 08:00:00 16,3 14,3 1 0 - - ZZW 1021,6 10 3 -
04.07.2020 07:00:00 16,1 14,1 2 1 5 3 WZW 1021,5 7 0 0,0
04.07.2020 06:00:00 16,9 14,3 3 1 8 5 NW 1021,0 7 0 0,0
04.07.2020 05:00:00 18,6 15,3 4 2 14 7 W 1020,1 11 0 0,0
04.07.2020 04:00:00 20,1 16,0 5 3 17 9 ZW 1020,0 18 0 0,0
04.07.2020 03:00:00 21,0 16,4 9 5 16 9 WZW 1020,0 20 0 0,0
04.07.2020 02:00:00 21,6 16,7 7 4 19 11 ZW 1019,8 20 0 -
04.07.2020 01:00:00 22,0 17,1 10 5 19 10 ZW 1020,0 16 0 0,0
04.07.2020 00:00:00 21,9 17,1 7 4 23 12 W 1019,8 19 0 0,0
03.07.2020 23:00:00 22,8 17,1 8 5 22 12 WZW 1018,6 20 0 0,0
03.07.2020 22:00:00 24,3 16,8 10 5 18 10 WZW 1017,5 20 0 0,0
03.07.2020 21:00:00 26,2 16,5 9 5 20 11 ZW 1016,5 20 0 0,0
03.07.2020 20:00:00 28,2 16,1 8 4 22 12 Z 1015,3 20 1 -
03.07.2020 19:00:00 28,3 15,9 10 5 27 15 O 1014,7 20 1 0,0
03.07.2020 18:00:00 30,3 15,6 15 8 34 19 OZO 1013,9 20 37 0,0
03.07.2020 17:00:00 31,1 14,7 15 8 28 15 OZO 1013,8 20 30 0,0
03.07.2020 16:00:00 32,6 12,2 11 6 30 16 O 1013,7 20 52 0,0
03.07.2020 15:00:00 32,8 11,3 11 6 23 12 O 1013,9 19 42 0,0
03.07.2020 14:00:00 31,9 10,0 10 5 24 13 O 1014,4 20 60 -
03.07.2020 13:00:00 30,4 10,9 9 5 19 10 NO 1015,2 20 60 0,0
03.07.2020 12:00:00 29,8 10,9 7 4 27 14 ONO 1015,6 20 60 0,0
03.07.2020 11:00:00 27,7 11,7 11 6 19 10 OZO 1015,8 20 60 0,0
03.07.2020 10:00:00 25,9 14,7 9 5 18 10 O 1016,1 20 60 0,0
03.07.2020 09:00:00 24,9 11,1 4 2 9 5 ZO 1016,2 20 60 0,0
03.07.2020 08:00:00 18,1 7,8 4 2 11 6 WZW 1017,4 20 55 -
03.07.2020 07:00:00 15,8 5,9 4 2 10 5 WZW 1017,6 20 0 0,0
03.07.2020 06:00:00 16,8 5,8 3 2 10 6 WZW 1016,9 20 0 0,0

tt = temperatuur
td = dauwpunt
ff = windsnelheid
fx = windstoten
dd = windrichting
ppp = luchtdruk
vv = zicht
sd = Zonneschijnduur
rr = neerslag

Weerstations in de omgeving